Berlin, NH

12:49 PM EDT on June 26, 2017 (GMT -0400)
Berlin Municipal

Weather History for KBML - July, 2012

Change the Weather History Date:

Monday, July 30, 2012

  Actual Average Record
Temperature  
Mean Temperature 68 °F -  
Max Temperature 84 °F 75 °F 88 °F (2015)
Min Temperature 53 °F 48 °F 37 °F (1997)
Cooling Degree Days 2    
Growing Degree Days 18 (Base 50)    
Moisture  
Dew Point 57 °F    
Average Humidity 84    
Maximum Humidity 100    
Minimum Humidity 41    
Precipitation  
Precipitation 0.00 in - - ()
Sea Level Pressure  
Sea Level Pressure 30.09 in    
Wind  
Wind Speed 0 mph (WSW)    
Max Wind Speed 6 mph    
Max Gust Speed -    
Visibility 5 miles    
Events Fog    
Averages and records for this station are not official NWS values.
T = Trace of Precipitation, MM = Missing Value Source: NWS Daily Summary

Daily Weather History Graph

Daily Weather History Graph

Search for Another Location

Airport or City:

Trip Planner

Search our weather history database for the weather conditions in past years. The results will help you decide how hot, cold, wet, or windy it might be!

Date:

Astronomy

Jul. 30, 2012 Rise Set
Actual Time 5:29 AM EDT 8:12 PM EDT
Civil Twilight 4:55 AM EDT 8:45 PM EDT
Nautical Twilight 4:13 AM EDT 9:27 PM EDT
Astronomical Twilight 3:24 AM EDT 10:16 PM EDT
Moon 6:12 PM EDT (7/30) 2:38 AM EDT (7/30)
Length of Visible Light 15h 49m
Length of Day
14h 42m
Waxing Gibbous, 92% of the Moon is Illuminated
Jul 30
Waxing Gibbous
Aug 1
Full
Aug 9
Last Quarter
Aug 17
New
Aug 24
First Quarter

Hourly Weather History & Observations

Time (EDT) Temp. Heat Index Dew Point Humidity Pressure Visibility Wind Dir Wind Speed Gust Speed Precip Events Conditions
12:35 AM 57.2 °F - 55.4 °F 94% 30.10 in 7.0 mi Calm Calm - N/A   Mostly Cloudy
12:52 AM 55.0 °F - 53.1 °F 93% 30.09 in 7.0 mi Calm Calm - N/A   Overcast
1:52 AM 57.0 °F - 55.0 °F 93% 30.09 in 6.0 mi Calm Calm - N/A   Overcast
1:55 AM 57.2 °F - 55.4 °F 94% 30.09 in 1.5 mi Calm Calm - N/A   Overcast
1:58 AM 57.2 °F - 55.4 °F 94% 30.09 in 0.8 mi Calm Calm - N/A   Overcast
2:07 AM 57.2 °F - 55.4 °F 94% 30.09 in 0.2 mi Calm Calm - N/A Fog Fog
2:39 AM 57.2 °F - 55.4 °F 94% 30.09 in 0.5 mi Calm Calm - N/A Fog Fog
2:45 AM 57.2 °F - 55.4 °F 94% 30.09 in 1.5 mi Calm Calm - N/A   Overcast
2:52 AM 57.9 °F - 57.0 °F 97% 30.09 in 2.5 mi SE 3.5 mph - N/A   Overcast
3:03 AM 57.2 °F - 55.4 °F 94% 30.09 in 6.0 mi Calm Calm - N/A   Overcast
3:07 AM 57.2 °F - 55.4 °F 94% 30.09 in 1.5 mi Calm Calm - N/A   Overcast
3:10 AM 57.2 °F - 55.4 °F 94% 30.09 in 0.8 mi Calm Calm - N/A   Overcast
3:40 AM 57.2 °F - 55.4 °F 94% 30.09 in 1.0 mi Calm Calm - N/A   Overcast
3:48 AM 55.4 °F - 55.4 °F 100% 30.08 in 0.5 mi Calm Calm - N/A Fog Fog
3:52 AM 55.9 °F - 55.0 °F 97% 30.08 in 0.5 mi Calm Calm - N/A Fog Fog
3:58 AM 55.4 °F - 53.6 °F 94% 30.09 in 1.5 mi Calm Calm - N/A   Overcast
4:11 AM 55.4 °F - 53.6 °F 94% 30.09 in 0.8 mi Calm Calm - N/A   Mist
4:23 AM 55.4 °F - 53.6 °F 94% 30.09 in 0.2 mi Calm Calm - N/A Fog Fog
4:52 AM 55.9 °F - 55.0 °F 97% 30.09 in 0.2 mi Calm Calm - N/A Fog Fog
5:10 AM 55.4 °F - 53.6 °F 94% 30.10 in 1.0 mi Calm Calm - N/A   Overcast
5:13 AM 55.4 °F - 53.6 °F 94% 30.10 in 2.0 mi Calm Calm - N/A   Overcast
5:34 AM 53.6 °F - 51.8 °F 94% 30.10 in 1.2 mi Calm Calm - N/A   Overcast
5:43 AM 53.6 °F - 51.8 °F 94% 30.11 in 2.5 mi Calm Calm - N/A   Overcast
5:52 AM 53.1 °F - 52.0 °F 96% 30.11 in 1.0 mi Calm Calm - N/A   Overcast
5:57 AM 53.6 °F - 53.6 °F 100% 30.11 in 0.2 mi Calm Calm - N/A Fog Fog
6:34 AM 55.4 °F - 55.4 °F 100% 30.11 in 0.2 mi Calm Calm - N/A Fog Fog
6:52 AM 55.9 °F - 55.0 °F 97% 30.12 in 0.2 mi Calm Calm - N/A Fog Fog
7:00 AM 55.4 °F - 55.4 °F 100% 30.12 in 0.2 mi Calm Calm - N/A Fog Fog
7:11 AM 57.2 °F - 55.4 °F 94% 30.12 in 1.2 mi Calm Calm - N/A   Overcast
7:13 AM 57.2 °F - 55.4 °F 94% 30.12 in 2.0 mi Calm Calm - N/A   Overcast
7:31 AM 57.2 °F - 57.2 °F 100% 30.12 in 4.0 mi Calm Calm - N/A   Mostly Cloudy
8:52 AM 66.9 °F - 61.0 °F 81% 30.13 in 10.0 mi Calm Calm - N/A   Mostly Cloudy
9:34 AM 69.8 °F - 62.6 °F 78% 30.12 in 10.0 mi Calm Calm - N/A   Mostly Cloudy
9:41 AM 71.6 °F - 60.8 °F 69% 30.12 in 10.0 mi Calm Calm - N/A   Mostly Cloudy
9:52 AM 70.0 °F - 61.0 °F 73% 30.12 in 10.0 mi Calm Calm - N/A   Overcast
10:52 AM 75.0 °F - 63.0 °F 66% 30.10 in 10.0 mi Variable 3.5 mph - N/A   Scattered Clouds
11:03 AM 77.0 °F - 62.6 °F 61% 30.10 in 10.0 mi Variable 3.5 mph - N/A   Mostly Cloudy
11:27 AM 77.0 °F - 62.6 °F 61% 30.10 in 10.0 mi Calm Calm - N/A   Scattered Clouds
11:52 AM 79.0 °F - 62.1 °F 56% 30.09 in 10.0 mi Calm Calm - N/A   Scattered Clouds
12:52 PM 81.0 °F 81.7 °F 61.0 °F 50% 30.08 in 10.0 mi North 4.6 mph - N/A   Mostly Cloudy
1:52 PM 81.0 °F 81.7 °F 61.0 °F 50% 30.07 in 10.0 mi Calm Calm - N/A   Clear
2:52 PM 82.0 °F 82.7 °F 61.0 °F 49% 30.05 in 10.0 mi Calm Calm - N/A   Partly Cloudy
3:52 PM 82.9 °F 82.6 °F 57.9 °F 42% 30.04 in 10.0 mi Variable 5.8 mph - N/A   Clear
4:52 PM 82.0 °F 81.7 °F 57.0 °F 42% 30.04 in 10.0 mi Variable 3.5 mph - N/A   Clear
5:52 PM 82.0 °F 81.6 °F 55.9 °F 41% 30.04 in 10.0 mi WNW 4.6 mph - N/A   Clear
6:52 PM 80.1 °F 80.6 °F 57.9 °F 47% 30.04 in 10.0 mi SW 4.6 mph - N/A   Clear
7:52 PM 69.1 °F - 64.0 °F 84% 30.06 in 10.0 mi Calm Calm - N/A   Clear
8:52 PM 66.0 °F - 62.1 °F 87% 30.06 in 10.0 mi Calm Calm - N/A   Clear
9:52 PM 63.0 °F - 60.1 °F 90% 30.06 in 10.0 mi Calm Calm - N/A   Clear
10:52 PM 62.1 °F - 60.1 °F 93% 30.07 in 10.0 mi Calm Calm - N/A   Clear
11:52 PM 59.0 °F - 55.9 °F 90% 30.08 in 10.0 mi Calm Calm - N/A   Clear